| time (UTC) | temp C | wind direction | speed KPH | gust KPH | rain 1hr cm | rain 24hr cm | rain mn cm | humidity % | barometer mb |
| 20260502170126 | 10 | 247 | 3.2 | 9.7 | 0.03 | 0.86 | 0.03 | 48 | 1026.9 |
| 20260502164145 | 10 | 116 | 3.2 | 6.4 | 0.00 | 0.86 | 0.00 | 53 | 1026.9 |
| 20260502163640 | 10 | 72 | 3.2 | 6.4 | 0.00 | 0.86 | 0.00 | 55 | 1026.9 |
| 20260502163154 | 10 | 120 | 1.6 | 6.4 | 0.00 | 0.86 | 0.00 | 57 | 1026.8 |
| 20260502162628 | 10 | 156 | 3.2 | 11.3 | 0.00 | 0.86 | 0.00 | 61 | 1026.8 |
| 20260502162125 | 10 | 113 | 4.8 | 12.9 | 0.00 | 0.86 | 0.00 | 58 | 1026.7 |
| 20260502161638 | 9 | 156 | 6.4 | 12.9 | 0.00 | 0.86 | 0.00 | 59 | 1026.7 |
| 20260502161132 | 8 | 84 | 4.8 | 11.3 | 0.00 | 0.86 | 0.00 | 58 | 1026.8 |
| 20260502160626 | 8 | 28 | 3.2 | 8.0 | 0.00 | 0.86 | 0.00 | 61 | 1026.7 |
| 20260502160120 | 8 | 130 | 3.2 | 11.3 | 0.00 | 0.86 | 0.00 | 70 | 1026.7 |
| 20260502152133 | 7 | 40 | 3.2 | 6.4 | 0.00 | 0.86 | 0.00 | 83 | 1026.8 |
| 20260502151624 | 6 | 151 | 3.2 | 8.0 | 0.00 | 0.86 | 0.00 | 82 | 1026.9 |
| 20260502151159 | 6 | 138 | 1.6 | 6.4 | 0.00 | 0.86 | 0.00 | 84 | 1026.9 |
| 20260502150626 | 6 | 91 | 0.0 | 3.2 | 0.00 | 0.86 | 0.00 | 86 | 1027.0 |
| 20260502150139 | 5 | 34 | 0.0 | 6.4 | 0.00 | 0.86 | 0.00 | 85 | 1026.9 |
| 20260502130638 | 0 | 355 | 0.0 | 0.0 | 0.00 | 0.86 | 0.00 | 95 | 1026.3 |
| 20260502130134 | 0 | 355 | 0.0 | 0.0 | 0.00 | 0.86 | 0.00 | 95 | 1026.4 |
| 20260502123631 | 0 | 355 | 0.0 | 0.0 | 0.00 | 0.86 | 0.00 | 94 | 1026.1 |
| 20260502123146 | 0 | 355 | 0.0 | 0.0 | 0.00 | 0.86 | 0.00 | 94 | 1026.0 |
| 20260502122620 | 0 | 355 | 0.0 | 0.0 | 0.00 | 0.86 | 0.00 | 94 | 1026.0 |
| 20260502122136 | 0 | 355 | 0.0 | 0.0 | 0.00 | 0.86 | 0.00 | 94 | 1026.1 |
| 20260502121651 | 0 | 355 | 0.0 | 0.0 | 0.00 | 0.86 | 0.00 | 94 | 1026.0 |
| 20260502121124 | 0 | 355 | 0.0 | 0.0 | 0.00 | 0.86 | 0.00 | 94 | 1026.1 |
| 20260502120640 | 0 | 355 | 0.0 | 0.0 | 0.00 | 0.86 | 0.00 | 94 | 1026.1 |
| 20260502120139 | 0 | 355 | 0.0 | 0.0 | 0.00 | 0.86 | 0.00 | 94 | 1026.0 |
| 20260502115634 | 0 | 355 | 0.0 | 0.0 | 0.00 | 0.86 | 0.00 | 94 | 1026.0 |
| 20260502115129 | 0 | 355 | 0.0 | 0.0 | 0.00 | 0.86 | 0.00 | 94 | 1026.0 |
| 20260502114623 | 0 | 355 | 0.0 | 0.0 | 0.00 | 0.86 | 0.00 | 94 | 1026.0 |
| 20260502114140 | 0 | 355 | 0.0 | 0.0 | 0.00 | 0.86 | 0.00 | 94 | 1025.9 |
| 20260502113634 | 0 | 355 | 0.0 | 0.0 | 0.00 | 0.86 | 0.00 | 94 | 1025.9 |
| 20260502113130 | 0 | 355 | 0.0 | 0.0 | 0.00 | 0.86 | 0.00 | 94 | 1026.0 |
| 20260502112645 | 0 | 355 | 0.0 | 0.0 | 0.00 | 0.86 | 0.00 | 94 | 1025.9 |
| 20260502112144 | 0 | 355 | 0.0 | 0.0 | 0.00 | 0.86 | 0.00 | 94 | 1026.0 |
| 20260502111638 | 0 | 355 | 0.0 | 0.0 | 0.00 | 0.86 | 0.00 | 94 | 1025.9 |
| 20260502111131 | 0 | 355 | 0.0 | 0.0 | 0.00 | 0.86 | 0.00 | 94 | 1026.0 |
| 20260502110627 | 0 | 355 | 0.0 | 0.0 | 0.00 | 0.86 | 0.00 | 94 | 1026.0 |
| 20260502110123 | 0 | 355 | 0.0 | 0.0 | 0.00 | 0.86 | 0.00 | 94 | 1025.9 |
| 20260502105657 | 0 | 355 | 0.0 | 0.0 | 0.00 | 0.86 | 0.00 | 94 | 1025.9 |
| 20260502105153 | 0 | 355 | 0.0 | 0.0 | 0.00 | 0.86 | 0.00 | 93 | 1026.0 |
| 20260502104628 | 0 | 355 | 0.0 | 0.0 | 0.00 | 0.86 | 0.00 | 94 | 1026.0 |
| 20260502104144 | 0 | 355 | 0.0 | 0.0 | 0.00 | 0.86 | 0.00 | 94 | 1026.0 |
| 20260502103658 | 0 | 355 | 0.0 | 0.0 | 0.00 | 0.86 | 0.00 | 94 | 1026.0 |
| 20260502103132 | 0 | 355 | 0.0 | 0.0 | 0.00 | 0.86 | 0.00 | 94 | 1025.9 |
| 20260502102647 | 0 | 355 | 0.0 | 0.0 | 0.00 | 0.86 | 0.00 | 94 | 1025.8 |
| 20260502102126 | 0 | 355 | 0.0 | 0.0 | 0.00 | 0.86 | 0.00 | 94 | 1025.8 |
| 20260502101621 | 0 | 355 | 0.0 | 0.0 | 0.00 | 0.86 | 0.00 | 93 | 1025.7 |
| 20260502101137 | 0 | 355 | 0.0 | 0.0 | 0.00 | 0.86 | 0.00 | 93 | 1025.7 |
| 20260502100633 | 1 | 355 | 0.0 | 0.0 | 0.00 | 0.86 | 0.00 | 93 | 1025.6 |
| 20260502100127 | 1 | 355 | 0.0 | 0.0 | 0.00 | 0.86 | 0.00 | 93 | 1025.5 |
| 20260502091124 | 1 | 355 | 0.0 | 0.0 | 0.00 | 0.86 | 0.00 | 94 | 1025.5 |
| 20260502090640 | 2 | 355 | 0.0 | 0.0 | 0.00 | 0.86 | 0.00 | 94 | 1025.5 |
| 20260502090153 | 1 | 355 | 0.0 | 0.0 | 0.00 | 0.86 | 0.00 | 94 | 1025.5 |
| 20260502071127 | 2 | 355 | 0.0 | 0.0 | 0.00 | 0.86 | 0.00 | 94 | 1025.9 |
| 20260502070640 | 2 | 355 | 0.0 | 0.0 | 0.00 | 0.86 | 0.00 | 94 | 1025.9 |
| 20260502070136 | 2 | 355 | 0.0 | 0.0 | 0.00 | 0.86 | 0.00 | 94 | 1025.9 |
| 20260502065631 | 2 | 355 | 0.0 | 0.0 | 0.00 | 0.89 | 0.00 | 94 | 1025.9 |
| 20260502065126 | 2 | 355 | 0.0 | 0.0 | 0.00 | 0.89 | 0.00 | 94 | 1025.9 |
| 20260502064625 | 2 | 355 | 0.0 | 0.0 | 0.00 | 0.89 | 0.00 | 94 | 1025.8 |
| 20260502064141 | 2 | 355 | 0.0 | 0.0 | 0.00 | 0.89 | 0.00 | 94 | 1025.8 |
| 20260502063654 | 2 | 355 | 0.0 | 0.0 | 0.00 | 0.89 | 0.00 | 94 | 1025.7 |
| 20260502063129 | 1 | 355 | 0.0 | 1.6 | 0.00 | 0.89 | 0.00 | 94 | 1025.7 |
| 20260502062643 | 1 | 355 | 0.0 | 1.6 | 0.00 | 0.89 | 0.00 | 93 | 1025.6 |
| 20260502062138 | 1 | 355 | 0.0 | 0.0 | 0.00 | 0.89 | 0.00 | 93 | 1025.6 |
| 20260502061633 | 2 | 355 | 0.0 | 0.0 | 0.00 | 0.89 | 0.00 | 93 | 1025.6 |
| 20260502061128 | 2 | 355 | 0.0 | 0.0 | 0.00 | 0.89 | 0.00 | 93 | 1025.6 |
| 20260502060625 | 2 | 355 | 0.0 | 0.0 | 0.00 | 0.89 | 0.00 | 93 | 1025.5 |
| 20260502060123 | 2 | 316 | 0.0 | 0.0 | 0.00 | 0.89 | 0.89 | 93 | 1025.3 |
| 20260502055637 | 2 | 316 | 0.0 | 0.0 | 0.00 | 0.89 | 0.89 | 93 | 1025.3 |
| 20260502055132 | 2 | 300 | 0.0 | 0.0 | 0.00 | 0.89 | 0.89 | 93 | 1025.2 |
| 20260502054627 | 2 | 300 | 0.0 | 0.0 | 0.00 | 0.89 | 0.89 | 93 | 1025.2 |
| 20260502054122 | 2 | 300 | 0.0 | 0.0 | 0.00 | 0.89 | 0.89 | 93 | 1025.1 |
| 20260502053659 | 2 | 300 | 0.0 | 0.0 | 0.00 | 0.89 | 0.89 | 93 | 1025.0 |
| 20260502053133 | 2 | 300 | 0.0 | 0.0 | 0.00 | 0.89 | 0.89 | 93 | 1025.0 |
| 20260502052628 | 2 | 300 | 0.0 | 0.0 | 0.00 | 0.89 | 0.89 | 93 | 1024.9 |
| 20260502052128 | 2 | 300 | 0.0 | 1.6 | 0.00 | 0.89 | 0.89 | 93 | 1025.0 |
| 20260502051640 | 2 | 300 | 0.0 | 0.0 | 0.00 | 0.89 | 0.89 | 93 | 1025.0 |
| 20260502051136 | 2 | 300 | 0.0 | 0.0 | 0.00 | 0.89 | 0.89 | 93 | 1024.9 |
| 20260502050651 | 2 | 300 | 0.0 | 0.0 | 0.00 | 0.89 | 0.89 | 93 | 1024.8 |
| 20260502050124 | 2 | 300 | 0.0 | 0.0 | 0.00 | 0.89 | 0.89 | 93 | 1025.0 |
| 20260502045620 | 2 | 300 | 0.0 | 0.0 | 0.00 | 0.89 | 0.89 | 92 | 1024.9 |
| 20260502045135 | 2 | 300 | 0.0 | 0.0 | 0.00 | 0.89 | 0.89 | 93 | 1024.8 |
| 20260502044632 | 2 | 300 | 0.0 | 0.0 | 0.00 | 0.89 | 0.89 | 92 | 1025.0 |
| 20260502044132 | 2 | 300 | 0.0 | 0.0 | 0.00 | 0.89 | 0.89 | 92 | 1024.8 |
| 20260502043647 | 3 | 300 | 0.0 | 0.0 | 0.00 | 0.89 | 0.89 | 92 | 1024.9 |
| 20260502043140 | 3 | 300 | 0.0 | 0.0 | 0.00 | 0.89 | 0.89 | 92 | 1024.9 |
| 20260502042635 | 3 | 300 | 0.0 | 0.0 | 0.00 | 0.89 | 0.89 | 92 | 1024.8 |
| 20260502042131 | 3 | 300 | 0.0 | 0.0 | 0.00 | 0.89 | 0.89 | 92 | 1024.8 |
| 20260502041627 | 3 | 300 | 0.0 | 0.0 | 0.00 | 0.89 | 0.89 | 93 | 1024.8 |
| 20260502041122 | 3 | 300 | 0.0 | 0.0 | 0.00 | 0.89 | 0.89 | 93 | 1024.8 |
| 20260502040636 | 3 | 300 | 0.0 | 0.0 | 0.00 | 0.89 | 0.89 | 93 | 1024.7 |
| 20260502040133 | 3 | 300 | 0.0 | 0.0 | 0.00 | 0.89 | 0.89 | 92 | 1024.8 |
| 20260502035632 | 3 | 300 | 0.0 | 0.0 | 0.00 | 0.89 | 0.89 | 93 | 1024.8 |
| 20260502035148 | 3 | 300 | 0.0 | 0.0 | 0.00 | 0.89 | 0.89 | 93 | 1024.8 |
| 20260502034623 | 3 | 300 | 0.0 | 0.0 | 0.00 | 0.89 | 0.89 | 93 | 1024.8 |
| 20260502034138 | 3 | 300 | 0.0 | 0.0 | 0.00 | 0.89 | 0.89 | 93 | 1024.8 |
| 20260502033633 | 3 | 300 | 0.0 | 0.0 | 0.00 | 0.89 | 0.89 | 92 | 1024.7 |
| 20260502033127 | 3 | 300 | 0.0 | 0.0 | 0.00 | 0.89 | 0.89 | 92 | 1024.6 |
| 20260502032622 | 3 | 300 | 0.0 | 0.0 | 0.00 | 0.89 | 0.89 | 92 | 1024.6 |
| 20260502032121 | 3 | 300 | 0.0 | 0.0 | 0.00 | 0.89 | 0.89 | 92 | 1024.4 |
| 20260502031634 | 3 | 300 | 0.0 | 0.0 | 0.00 | 0.89 | 0.89 | 93 | 1024.3 |
| 20260502031148 | 3 | 300 | 0.0 | 3.2 | 0.00 | 0.89 | 0.89 | 93 | 1024.4 |
| 20260502030700 | 3 | 300 | 0.0 | 3.2 | 0.00 | 0.89 | 0.89 | 93 | 1024.3 |
| 20260502030132 | 3 | 311 | 0.0 | 0.0 | 0.00 | 0.89 | 0.89 | 93 | 1024.3 |
| 20260502025625 | 3 | 311 | 0.0 | 0.0 | 0.00 | 0.89 | 0.89 | 93 | 1024.1 |
| 20260502025159 | 3 | 311 | 0.0 | 0.0 | 0.00 | 0.89 | 0.89 | 93 | 1024.2 |
| 20260502024632 | 3 | 311 | 0.0 | 0.0 | 0.00 | 0.89 | 0.89 | 93 | 1024.1 |
| 20260502024124 | 3 | 311 | 0.0 | 3.2 | 0.00 | 0.89 | 0.89 | 93 | 1023.9 |
| 20260502023638 | 3 | 311 | 0.0 | 3.2 | 0.00 | 0.89 | 0.89 | 93 | 1023.8 |
| 20260502023136 | 3 | 304 | 0.0 | 0.0 | 0.00 | 0.89 | 0.89 | 93 | 1023.7 |
| 20260502022629 | 3 | 304 | 0.0 | 0.0 | 0.03 | 0.89 | 0.89 | 93 | 1023.4 |
| 20260502022123 | 3 | 304 | 0.0 | 0.0 | 0.03 | 0.89 | 0.89 | 93 | 1023.3 |
| 20260502021636 | 3 | 304 | 0.0 | 0.0 | 0.03 | 0.89 | 0.89 | 93 | 1023.4 |
| 20260502021150 | 2 | 304 | 0.0 | 0.0 | 0.05 | 0.89 | 0.89 | 92 | 1023.3 |
| 20260502020624 | 2 | 304 | 0.0 | 4.8 | 0.08 | 0.89 | 0.89 | 92 | 1023.2 |
| 20260502020137 | 2 | 311 | 0.0 | 0.0 | 0.10 | 0.89 | 0.89 | 92 | 1023.2 |
| 20260502015652 | 2 | 311 | 0.0 | 0.0 | 0.13 | 0.89 | 0.89 | 92 | 1023.2 |
| 20260502015125 | 2 | 311 | 0.0 | 0.0 | 0.15 | 0.89 | 0.89 | 92 | 1023.1 |
| 20260502014623 | 2 | 311 | 0.0 | 1.6 | 0.20 | 0.89 | 0.89 | 92 | 1023.2 |
| 20260502014137 | 2 | 311 | 0.0 | 1.6 | 0.23 | 0.89 | 0.89 | 92 | 1023.1 |
| 20260502013650 | 2 | 311 | 0.0 | 1.6 | 0.25 | 0.89 | 0.89 | 91 | 1023.1 |
| 20260502013123 | 2 | 311 | 0.0 | 3.2 | 0.25 | 0.89 | 0.89 | 91 | 1023.0 |
| 20260502012656 | 3 | 311 | 1.6 | 3.2 | 0.23 | 0.86 | 0.86 | 91 | 1023.0 |
| 20260502012129 | 3 | 311 | 0.0 | 0.0 | 0.23 | 0.86 | 0.86 | 90 | 1022.9 |
| 20260502011623 | 3 | 311 | 0.0 | 1.6 | 0.23 | 0.86 | 0.86 | 90 | 1022.9 |
| 20260502011136 | 3 | 311 | 0.0 | 4.8 | 0.20 | 0.84 | 0.84 | 90 | 1022.9 |
| 20260502010631 | 3 | 311 | 0.0 | 4.8 | 0.18 | 0.81 | 0.81 | 90 | 1022.9 |
| 20260502010127 | 3 | 292 | 0.0 | 3.2 | 0.15 | 0.79 | 0.79 | 90 | 1022.7 |
| 20260502005621 | 4 | 298 | 0.0 | 3.2 | 0.13 | 0.76 | 0.76 | 90 | 1022.5 |
| 20260502005135 | 4 | 316 | 0.0 | 1.6 | 0.10 | 0.74 | 0.74 | 90 | 1022.6 |
| 20260502004627 | 4 | 316 | 0.0 | 4.8 | 0.05 | 0.69 | 0.69 | 90 | 1022.7 |
| 20260502004120 | 4 | 316 | 0.0 | 4.8 | 0.03 | 0.66 | 0.66 | 89 | 1022.7 |
| 20260502003634 | 4 | 301 | 0.0 | 4.8 | 0.00 | 0.64 | 0.64 | 89 | 1022.7 |
| 20260502003128 | 4 | 301 | 0.0 | 4.8 | 0.00 | 0.64 | 0.64 | 88 | 1022.4 |
| 20260502002622 | 5 | 304 | 0.0 | 1.6 | 0.00 | 0.64 | 0.64 | 89 | 1022.3 |
| 20260502002136 | 5 | 333 | 0.0 | 0.0 | 0.00 | 0.64 | 0.64 | 88 | 1022.3 |
| 20260502001634 | 5 | 341 | 0.0 | 0.0 | 0.00 | 0.64 | 0.64 | 88 | 1022.2 |
| 20260502001127 | 5 | 341 | 0.0 | 0.0 | 0.00 | 0.64 | 0.64 | 88 | 1022.0 |
| 20260502000621 | 5 | 341 | 0.0 | 1.6 | 0.00 | 0.64 | 0.64 | 88 | 1022.0 |
| 20260502000154 | 5 | 345 | 0.0 | 3.2 | 0.00 | 0.64 | 0.64 | 88 | 1021.8 |
| 20260501235627 | 5 | 193 | 0.0 | 4.8 | 0.00 | 0.64 | 0.64 | 88 | 1021.6 |
| 20260501235122 | 5 | 271 | 0.0 | 3.2 | 0.00 | 0.64 | 0.64 | 89 | 1021.4 |
| 20260501234633 | 5 | 215 | 0.0 | 3.2 | 0.00 | 0.64 | 0.64 | 88 | 1021.4 |
| 20260501234127 | 5 | 344 | 0.0 | 1.6 | 0.00 | 0.64 | 0.64 | 89 | 1021.5 |
| 20260501233625 | 5 | 264 | 0.0 | 1.6 | 0.03 | 0.64 | 0.64 | 88 | 1021.5 |
| 20260501233139 | 5 | 262 | 0.0 | 6.4 | 0.03 | 0.64 | 0.64 | 87 | 1021.5 |
| 20260501232631 | 5 | 237 | 1.6 | 6.4 | 0.05 | 0.64 | 0.64 | 87 | 1021.4 |
| 20260501232126 | 6 | 155 | 3.2 | 8.0 | 0.05 | 0.64 | 0.64 | 89 | 1021.3 |
| 20260501231621 | 6 | 191 | 1.6 | 8.0 | 0.08 | 0.64 | 0.64 | 89 | 1021.3 |
| 20260501231153 | 6 | 161 | 1.6 | 8.0 | 0.08 | 0.64 | 0.64 | 90 | 1021.3 |
| 20260501230627 | 6 | 67 | 1.6 | 11.3 | 0.08 | 0.64 | 0.64 | 89 | 1021.3 |
| 20260501230122 | 6 | 177 | 0.0 | 14.5 | 0.08 | 0.64 | 0.64 | 90 | 1021.3 |
| 20260501225638 | 6 | 142 | 4.8 | 14.5 | 0.08 | 0.64 | 0.64 | 90 | 1021.3 |
| 20260501225133 | 5 | 140 | 0.0 | 9.7 | 0.08 | 0.64 | 0.64 | 91 | 1021.1 |
| 20260501224633 | 5 | 178 | 3.2 | 8.0 | 0.08 | 0.64 | 0.64 | 91 | 1021.1 |
| 20260501224149 | 5 | 105 | 0.0 | 4.8 | 0.08 | 0.64 | 0.64 | 90 | 1021.2 |
| 20260501223623 | 5 | 159 | 0.0 | 3.2 | 0.05 | 0.61 | 0.61 | 89 | 1021.3 |
| 20260501223139 | 5 | 300 | 0.0 | 6.4 | 0.05 | 0.61 | 0.61 | 89 | 1021.5 |
| 20260501222634 | 5 | 305 | 0.0 | 6.4 | 0.03 | 0.58 | 0.58 | 89 | 1021.4 |
| 20260501222130 | 5 | 205 | 0.0 | 1.6 | 0.03 | 0.58 | 0.58 | 90 | 1021.3 |
| 20260501221626 | 5 | 269 | 0.0 | 0.0 | 0.00 | 0.56 | 0.56 | 90 | 1021.3 |
| 20260501221120 | 5 | 169 | 0.0 | 0.0 | 0.03 | 0.56 | 0.56 | 90 | 1021.1 |
| 20260501220620 | 5 | 169 | 0.0 | 3.2 | 0.03 | 0.56 | 0.56 | 89 | 1021.1 |
| 20260501220137 | 5 | 169 | 0.0 | 3.2 | 0.03 | 0.56 | 0.56 | 90 | 1021.1 |
| 20260501215631 | 5 | 266 | 0.0 | 6.4 | 0.08 | 0.56 | 0.56 | 90 | 1021.0 |
| 20260501215126 | 5 | 34 | 1.6 | 8.0 | 0.10 | 0.56 | 0.56 | 89 | 1021.0 |
| 20260501214701 | 4 | 50 | 3.2 | 9.7 | 0.18 | 0.56 | 0.56 | 88 | 1021.0 |
| 20260501214135 | 4 | 28 | 4.8 | 9.7 | 0.20 | 0.56 | 0.56 | 90 | 1021.1 |
| 20260501213631 | 4 | 53 | 1.6 | 12.9 | 0.23 | 0.56 | 0.56 | 91 | 1021.1 |
| 20260501213126 | 4 | 47 | 3.2 | 12.9 | 0.25 | 0.56 | 0.56 | 90 | 1021.3 |
| 20260501212623 | 3 | 34 | 3.2 | 11.3 | 0.28 | 0.56 | 0.56 | 91 | 1021.3 |
| 20260501212122 | 3 | 42 | 4.8 | 11.3 | 0.30 | 0.56 | 0.56 | 91 | 1021.3 |
| 20260501211638 | 3 | 73 | 3.2 | 8.0 | 0.33 | 0.56 | 0.56 | 91 | 1021.4 |
| 20260501211134 | 3 | 20 | 1.6 | 8.0 | 0.30 | 0.53 | 0.53 | 91 | 1021.5 |
| 20260501210630 | 3 | 54 | 3.2 | 8.0 | 0.36 | 0.53 | 0.53 | 91 | 1021.5 |
| 20260501210126 | 3 | 50 | 3.2 | 6.4 | 0.36 | 0.51 | 0.51 | 91 | 1021.6 |
| 20260501205622 | 3 | 46 | 0.0 | 4.8 | 0.36 | 0.48 | 0.48 | 90 | 1021.7 |
| 20260501205136 | 3 | 46 | 0.0 | 4.8 | 0.30 | 0.43 | 0.43 | 90 | 1021.7 |
| 20260501204637 | 3 | 45 | 0.0 | 3.2 | 0.28 | 0.38 | 0.38 | 90 | 1021.7 |
| 20260501204153 | 3 | 13 | 0.0 | 4.8 | 0.28 | 0.36 | 0.36 | 90 | 1021.8 |
| 20260501203648 | 3 | 236 | 1.6 | 4.8 | 0.25 | 0.33 | 0.33 | 90 | 1021.8 |
| 20260501203122 | 3 | 59 | 0.0 | 6.4 | 0.23 | 0.28 | 0.28 | 90 | 1021.9 |
| 20260501202638 | 2 | 52 | 1.6 | 8.0 | 0.23 | 0.28 | 0.28 | 90 | 1021.9 |
| 20260501202135 | 2 | 34 | 4.8 | 11.3 | 0.20 | 0.25 | 0.25 | 89 | 1021.8 |
| 20260501201631 | 2 | 54 | 3.2 | 11.3 | 0.18 | 0.23 | 0.23 | 89 | 1021.8 |
| 20260501201126 | 2 | 26 | 4.8 | 9.7 | 0.18 | 0.23 | 0.23 | 89 | 1021.8 |
| 20260501200626 | 2 | 5 | 1.6 | 4.8 | 0.13 | 0.18 | 0.18 | 89 | 1021.8 |
| 20260501200123 | 2 | 48 | 0.0 | 4.8 | 0.10 | 0.15 | 0.15 | 89 | 1021.8 |
| 20260501195638 | 2 | 42 | 3.2 | 8.0 | 0.08 | 0.13 | 0.13 | 88 | 1021.8 |
| 20260501195154 | 2 | 65 | 3.2 | 6.4 | 0.05 | 0.10 | 0.10 | 87 | 1021.7 |
| 20260501194628 | 3 | 42 | 3.2 | 8.0 | 0.05 | 0.10 | 0.10 | 86 | 1021.7 |
| 20260501194145 | 3 | 45 | 3.2 | 8.0 | 0.03 | 0.08 | 0.08 | 85 | 1021.7 |
| 20260501193639 | 3 | 346 | 3.2 | 16.1 | 0.03 | 0.08 | 0.08 | 84 | 1021.7 |
| 20260501193135 | 3 | 72 | 4.8 | 16.1 | 0.00 | 0.05 | 0.05 | 83 | 1021.5 |
| 20260501192629 | 4 | 5 | 6.4 | 16.1 | 0.00 | 0.05 | 0.05 | 81 | 1021.4 |
| 20260501192129 | 5 | 36 | 8.0 | 14.5 | 0.00 | 0.05 | 0.05 | 80 | 1021.4 |
| 20260501191625 | 5 | 46 | 3.2 | 9.7 | 0.00 | 0.05 | 0.05 | 78 | 1021.4 |
| 20260501191120 | 6 | 26 | 3.2 | 17.7 | 0.00 | 0.05 | 0.05 | 78 | 1021.3 |
| 20260501190636 | 6 | 68 | 3.2 | 17.7 | 0.00 | 0.05 | 0.05 | 75 | 1021.4 |
| 20260501190132 | 6 | 52 | 3.2 | 4.8 | 0.00 | 0.05 | 0.05 | 79 | 1021.3 |
| 20260501185628 | 6 | 194 | 0.0 | 8.0 | 0.00 | 0.05 | 0.05 | 77 | 1021.2 |
| 20260501185123 | 7 | 86 | 1.6 | 8.0 | 0.00 | 0.05 | 0.05 | 78 | 1021.2 |
| 20260501184623 | 7 | 34 | 0.0 | 0.0 | 0.00 | 0.05 | 0.05 | 78 | 1021.1 |
| 20260501184140 | 7 | 46 | 0.0 | 0.0 | 0.00 | 0.05 | 0.05 | 79 | 1021.1 |
| 20260501183634 | 7 | 5 | 0.0 | 0.0 | 0.00 | 0.05 | 0.05 | 78 | 1021.2 |
| 20260501183130 | 7 | 5 | 0.0 | 3.2 | 0.00 | 0.05 | 0.05 | 76 | 1021.1 |
| 20260501182645 | 8 | 85 | 1.6 | 8.0 | 0.00 | 0.05 | 0.05 | 74 | 1021.1 |
| 20260501182121 | 8 | 133 | 3.2 | 8.0 | 0.00 | 0.05 | 0.05 | 71 | 1021.1 |
| 20260501181636 | 8 | 246 | 3.2 | 8.0 | 0.00 | 0.05 | 0.05 | 66 | 1021.1 |
| 20260501181131 | 8 | 153 | 1.6 | 14.5 | 0.00 | 0.05 | 0.05 | 67 | 1021.1 |
| 20260501180630 | 8 | 134 | 3.2 | 14.5 | 0.00 | 0.05 | 0.05 | 68 | 1021.0 |
| 20260501180127 | 8 | 74 | 3.2 | 6.4 | 0.00 | 0.05 | 0.05 | 67 | 1021.0 |
| 20260501175623 | 8 | 39 | 1.6 | 11.3 | 0.00 | 0.05 | 0.05 | 70 | 1021.1 |
| 20260501175139 | 8 | 15 | 3.2 | 11.3 | 0.00 | 0.05 | 0.05 | 72 | 1021.0 |
| 20260501174634 | 8 | 317 | 1.6 | 4.8 | 0.00 | 0.05 | 0.05 | 73 | 1021.1 |
| 20260501174130 | 8 | 305 | 0.0 | 6.4 | 0.00 | 0.05 | 0.05 | 73 | 1021.1 |
| 20260501173626 | 8 | 129 | 1.6 | 9.7 | 0.03 | 0.05 | 0.05 | 73 | 1021.2 |